Location: ??
(35.4032°N, 139.3073°E)
Time: 02:16:51
(UTC+00:00)

METEOR-M - Visible Passes

Search period start: 19 July 2024 00:00
Search period end: 29 July 2024 00:00
Orbit: 814 x 818 km, 98.6° (Epoch: 18 July)

Date Brightness Start Highest point End Pass type
(mag) Time Alt. Az. Time Alt. Az. Time Alt. Az.
19 Jul 5.0 17:29:39 10° NNE 17:34:45 45° E 17:38:04 21° SSE visible
19 Jul 5.6 19:10:36 10° NNW 19:14:23 20° WNW 19:18:08 10° WSW visible
20 Jul 5.7 17:08:12 10° NE 17:12:43 28° E 17:15:48 17° SE visible
20 Jul 5.0 18:48:00 10° N 18:52:39 31° WNW 18:57:05 11° SW visible
21 Jul 6.4 16:47:14 10° NE 16:50:37 17° E 16:53:33 11° SE visible
21 Jul 4.4 18:25:43 10° N 18:30:52 51° WNW 18:34:49 17° SW visible
22 Jul 4.1 18:03:39 10° N 18:08:59 83° WNW 18:12:33 22° SSW visible
23 Jul 4.5 17:41:47 10° NNE 17:47:03 61° E 17:50:18 23° S visible
24 Jul 5.3 17:20:09 10° NNE 17:25:04 36° E 17:28:01 21° SSE visible
24 Jul 5.4 19:00:36 10° NNW 19:04:48 24° WNW 19:09:01 10° WSW visible
25 Jul 6.0 16:58:52 10° NE 17:03:00 22° E 17:05:45 15° SE visible
25 Jul 4.8 18:38:09 10° N 18:43:04 39° WNW 18:47:01 15° SW visible
26 Jul 6.6 16:38:20 10° ENE 16:40:51 13° E 16:43:22 10° ESE visible
26 Jul 4.2 18:15:58 10° N 18:21:14 63° WNW 18:24:45 21° SSW visible
27 Jul 4.1 17:53:59 10° NNE 17:59:20 80° ESE 18:02:29 25° S visible
28 Jul 4.8 17:32:12 10° NNE 17:37:21 48° E 17:40:13 25° SSE visible
28 Jul 5.7 19:13:19 10° NNW 19:16:57 19° WNW 19:20:34 10° WSW visible
